Time,TemperatureF,DewpointF,PressureIn,WindDirection,WindDirectionDegrees,WindSpeedMPH,WindSpeedGustMPH,Humidity,HourlyPrecipIn,Conditions,Clouds,dailyrainin,SoftwareType,DateUTC
2013-05-15 00:01:00,38.1,33.1,30.01,ESE,110,0.0,0.0,82,0.00,,,0.00,Wunderground v.1.15,2013-05-15 04:01:00,
2013-05-15 00:02:00,38.1,33.1,30.01,ESE,110,0.0,0.0,82,0.00,,,0.00,Wunderground v.1.15,2013-05-15 04:02:00,
2013-05-15 00:04:00,38.1,32.8,30.01,ESE,110,0.0,0.0,81,0.00,,,0.00,Wunderground v.1.15,2013-05-15 04:04:00,
2013-05-15 00:05:00,38.0,33.0,30.01,ESE,110,0.0,0.0,82,0.00,,,0.00,Wunderground v.1.15,2013-05-15 04:05:00,
2013-05-15 00:11:00,37.9,32.9,30.01,ESE,110,0.0,0.0,82,0.00,,,0.00,Wunderground v.1.15,2013-05-15 04:11:00,
2013-05-15 00:17:00,37.6,32.9,30.01,ESE,110,0.0,0.0,83,0.00,,,0.00,Wunderground v.1.15,2013-05-15 04:17:00,
2013-05-15 00:23:00,37.0,32.9,30.01,ESE,121,0.0,0.0,85,0.00,,,0.00,Wunderground v.1.15,2013-05-15 04:23:00,
2013-05-15 00:28:00,36.6,32.8,30.01,ESE,107,0.0,0.0,86,0.00,,,0.00,Wunderground v.1.15,2013-05-15 04:28:00,
2013-05-15 00:34:00,37.0,33.2,30.01,NW,315,0.0,0.0,86,0.00,,,0.00,Wunderground v.1.15,2013-05-15 04:34:00,
2013-05-15 00:36:00,36.8,33.3,30.02,NW,315,0.0,0.0,87,0.00,,,0.00,Wunderground v.1.15,2013-05-15 04:36:00,
2013-05-15 00:42:00,36.5,33.0,30.01,ESE,110,0.0,0.0,87,0.00,,,0.00,Wunderground v.1.15,2013-05-15 04:42:00,
2013-05-15 00:48:00,36.3,32.8,30.01,ESE,110,0.0,0.0,87,0.00,,,0.00,Wunderground v.1.15,2013-05-15 04:48:00,
2013-05-15 00:53:00,36.3,32.8,30.01,ESE,110,0.0,0.0,87,0.00,,,0.00,Wunderground v.1.15,2013-05-15 04:53:00,
2013-05-15 00:58:00,36.2,32.7,30.01,ESE,110,0.0,0.0,87,0.00,,,0.00,Wunderground v.1.15,2013-05-15 04:58:00,
2013-05-15 01:04:00,36.1,32.6,30.01,ESE,110,0.0,0.0,87,0.00,,,0.00,Wunderground v.1.15,2013-05-15 05:04:00,
2013-05-15 01:10:00,35.9,32.4,30.01,ESE,110,0.0,0.0,87,0.00,,,0.00,Wunderground v.1.15,2013-05-15 05:10:00,
2013-05-15 01:15:00,35.6,32.0,30.01,ESE,110,0.0,0.0,88,0.00,,,0.00,weatherlink.com 1.10,2013-05-15 05:15:00,
2013-05-15 01:21:00,35.5,32.6,30.01,ESE,110,0.0,0.0,89,0.00,,,0.00,Wunderground v.1.15,2013-05-15 05:21:00,
2013-05-15 01:27:00,35.2,32.3,30.01,ESE,110,0.0,0.0,89,0.00,,,0.00,Wunderground v.1.15,2013-05-15 05:27:00,
2013-05-15 01:32:00,35.0,32.4,30.01,ESE,110,0.0,0.0,90,0.00,,,0.00,Wunderground v.1.15,2013-05-15 05:32:00,
2013-05-15 01:38:00,34.9,32.3,30.01,ESE,110,0.0,0.0,90,0.00,,,0.00,Wunderground v.1.15,2013-05-15 05:38:00,
2013-05-15 01:44:00,34.6,32.2,30.01,ESE,110,0.0,0.0,91,0.00,,,0.00,Wunderground v.1.15,2013-05-15 05:44:00,
2013-05-15 01:50:00,34.7,32.6,30.01,ESE,110,0.0,0.0,92,0.00,,,0.00,Wunderground v.1.15,2013-05-15 05:50:00,
2013-05-15 01:55:00,34.8,32.7,30.01,ESE,110,0.0,0.0,92,0.00,,,0.00,Wunderground v.1.15,2013-05-15 05:55:00,
2013-05-15 02:01:00,34.7,32.3,30.01,ESE,110,0.0,0.0,91,0.00,,,0.00,Wunderground v.1.15,2013-05-15 06:01:00,
2013-05-15 02:06:00,34.7,32.6,30.01,ESE,110,0.0,0.0,92,0.00,,,0.00,Wunderground v.1.15,2013-05-15 06:06:00,
2013-05-15 02:11:00,34.9,32.8,30.01,ESE,110,0.0,0.0,92,0.00,,,0.00,Wunderground v.1.15,2013-05-15 06:11:00,
2013-05-15 02:16:00,34.9,32.5,30.01,ESE,110,0.0,0.0,91,0.00,,,0.00,Wunderground v.1.15,2013-05-15 06:16:00,
2013-05-15 02:21:00,34.8,32.4,30.01,ESE,110,0.0,0.0,91,0.00,,,0.00,Wunderground v.1.15,2013-05-15 06:21:00,
2013-05-15 02:26:00,34.7,32.3,30.01,ESE,110,0.0,0.0,91,0.00,,,0.00,Wunderground v.1.15,2013-05-15 06:26:00,
2013-05-15 02:31:00,34.5,32.1,30.01,ESE,110,0.0,0.0,91,0.00,,,0.00,Wunderground v.1.15,2013-05-15 06:31:00,
2013-05-15 02:36:00,34.1,31.7,30.01,ESE,110,0.0,0.0,91,0.00,,,0.00,Wunderground v.1.15,2013-05-15 06:36:00,
2013-05-15 02:41:00,33.9,31.8,30.01,ESE,110,0.0,0.0,92,0.00,,,0.00,Wunderground v.1.15,2013-05-15 06:41:00,
2013-05-15 02:46:00,33.7,31.6,30.01,ESE,110,0.0,0.0,92,0.00,,,0.00,Wunderground v.1.15,2013-05-15 06:46:00,
2013-05-15 02:51:00,33.6,31.5,30.01,ESE,110,0.0,0.0,92,0.00,,,0.00,Wunderground v.1.15,2013-05-15 06:51:00,
2013-05-15 02:56:00,33.4,31.3,30.01,ESE,110,0.0,0.0,92,0.00,,,0.00,Wunderground v.1.15,2013-05-15 06:56:00,
2013-05-15 03:01:00,33.2,31.4,30.01,ESE,110,0.0,0.0,93,0.00,,,0.00,Wunderground v.1.15,2013-05-15 07:01:00,
2013-05-15 03:06:00,33.1,31.3,30.01,ESE,110,0.0,0.0,93,0.00,,,0.00,Wunderground v.1.15,2013-05-15 07:06:00,
2013-05-15 03:11:00,32.9,31.1,30.01,ESE,110,0.0,0.0,93,0.00,,,0.00,Wunderground v.1.15,2013-05-15 07:11:00,
2013-05-15 03:16:00,32.8,31.3,30.01,ESE,110,0.0,0.0,94,0.00,,,0.00,Wunderground v.1.15,2013-05-15 07:16:00,
2013-05-15 03:21:00,32.7,31.2,30.01,ESE,110,0.0,0.0,94,0.00,,,0.00,Wunderground v.1.15,2013-05-15 07:21:00,
2013-05-15 03:26:00,32.5,31.0,30.01,ESE,110,0.0,0.0,94,0.00,,,0.00,Wunderground v.1.15,2013-05-15 07:26:00,
2013-05-15 03:31:00,32.3,30.8,30.01,ESE,110,0.0,0.0,94,0.00,,,0.00,Wunderground v.1.15,2013-05-15 07:31:00,
2013-05-15 03:36:00,32.1,30.6,30.01,ESE,110,0.0,0.0,94,0.00,,,0.00,Wunderground v.1.15,2013-05-15 07:36:00,
2013-05-15 03:41:00,32.1,30.8,30.01,ESE,110,0.0,0.0,95,0.00,,,0.00,Wunderground v.1.15,2013-05-15 07:41:00,
2013-05-15 03:46:00,31.9,30.6,30.01,ESE,110,0.0,0.0,95,0.00,,,0.00,Wunderground v.1.15,2013-05-15 07:46:00,
2013-05-15 03:51:00,31.6,30.1,30.02,ESE,110,0.0,0.0,94,0.00,,,0.00,Wunderground v.1.15,2013-05-15 07:51:00,
2013-05-15 03:56:00,31.7,30.4,30.01,ESE,110,0.0,0.0,95,0.00,,,0.00,Wunderground v.1.15,2013-05-15 07:56:00,
2013-05-15 04:01:00,31.8,30.5,30.02,ESE,110,0.0,0.0,95,0.00,,,0.00,Wunderground v.1.15,2013-05-15 08:01:00,
2013-05-15 04:07:00,32.1,31.1,30.01,South,185,0.0,0.0,96,0.00,,,0.00,Wunderground v.1.15,2013-05-15 08:07:00,
2013-05-15 04:11:00,32.3,31.3,30.02,South,184,0.0,0.0,96,0.00,,,0.00,Wunderground v.1.15,2013-05-15 08:11:00,
2013-05-15 04:17:00,32.3,31.3,30.01,South,184,0.0,0.0,96,0.00,,,0.00,Wunderground v.1.15,2013-05-15 08:17:00,
2013-05-15 04:21:00,32.5,31.5,30.01,South,184,0.0,0.0,96,0.00,,,0.00,Wunderground v.1.15,2013-05-15 08:21:00,
2013-05-15 04:26:00,32.5,31.5,30.01,South,184,0.0,0.0,96,0.00,,,0.00,Wunderground v.1.15,2013-05-15 08:26:00,
2013-05-15 04:31:00,32.6,31.6,30.01,South,184,0.0,0.0,96,0.00,,,0.00,Wunderground v.1.15,2013-05-15 08:31:00,
2013-05-15 04:36:00,32.7,31.7,30.01,South,184,0.0,0.0,96,0.00,,,0.00,Wunderground v.1.15,2013-05-15 08:36:00,
2013-05-15 04:41:00,32.8,31.8,30.01,South,184,0.0,0.0,96,0.00,,,0.00,Wunderground v.1.15,2013-05-15 08:41:00,
2013-05-15 04:46:00,32.8,31.8,30.01,South,184,0.0,0.0,96,0.00,,,0.00,Wunderground v.1.15,2013-05-15 08:46:00,
2013-05-15 04:51:00,32.7,31.7,30.01,South,185,0.0,0.0,96,0.00,,,0.00,Wunderground v.1.15,2013-05-15 08:51:00,
2013-05-15 04:56:00,32.4,31.1,30.01,South,184,0.0,0.0,95,0.00,,,0.00,Wunderground v.1.15,2013-05-15 08:56:00,
2013-05-15 05:01:00,32.2,31.2,30.01,South,184,0.0,0.0,96,0.00,,,0.00,Wunderground v.1.15,2013-05-15 09:01:00,
2013-05-15 05:06:00,32.2,31.2,30.01,South,184,0.0,0.0,96,0.00,,,0.00,Wunderground v.1.15,2013-05-15 09:06:00,
2013-05-15 05:11:00,32.4,31.4,30.01,South,184,0.0,0.0,96,0.00,,,0.00,Wunderground v.1.15,2013-05-15 09:11:00,
2013-05-15 05:17:00,32.4,31.4,30.02,South,184,0.0,0.0,96,0.00,,,0.00,Wunderground v.1.15,2013-05-15 09:17:00,
2013-05-15 05:22:00,32.1,31.1,30.01,South,184,0.0,0.0,96,0.00,,,0.00,Wunderground v.1.15,2013-05-15 09:22:00,
2013-05-15 05:27:00,31.7,30.7,30.01,South,184,0.0,0.0,96,0.00,,,0.00,Wunderground v.1.15,2013-05-15 09:27:00,
2013-05-15 05:32:00,31.6,30.6,30.01,South,184,0.0,0.0,96,0.00,,,0.00,Wunderground v.1.15,2013-05-15 09:32:00,
2013-05-15 05:37:00,31.4,30.4,30.01,South,185,0.0,0.0,96,0.00,,,0.00,Wunderground v.1.15,2013-05-15 09:37:00,
2013-05-15 05:42:00,31.3,30.3,30.01,South,184,0.0,0.0,96,0.00,,,0.00,Wunderground v.1.15,2013-05-15 09:42:00,
2013-05-15 05:47:00,31.1,30.1,30.01,South,184,0.0,0.0,96,0.00,,,0.00,Wunderground v.1.15,2013-05-15 09:47:00,
2013-05-15 05:52:00,30.8,29.8,30.01,South,184,0.0,0.0,96,0.00,,,0.00,Wunderground v.1.15,2013-05-15 09:52:00,
2013-05-15 05:57:00,30.9,29.9,30.01,South,184,0.0,0.0,96,0.00,,,0.00,Wunderground v.1.15,2013-05-15 09:57:00,
2013-05-15 06:02:00,31.6,30.6,30.01,South,184,0.0,0.0,96,0.00,,,0.00,Wunderground v.1.15,2013-05-15 10:02:00,
2013-05-15 06:07:00,32.6,31.6,30.01,South,184,0.0,0.0,96,0.00,,,0.00,Wunderground v.1.15,2013-05-15 10:07:00,
2013-05-15 06:12:00,33.5,32.5,30.01,South,184,0.0,0.0,96,0.00,,,0.00,Wunderground v.1.15,2013-05-15 10:12:00,
2013-05-15 06:17:00,34.3,33.0,30.02,South,184,0.0,0.0,95,0.00,,,0.00,Wunderground v.1.15,2013-05-15 10:17:00,
2013-05-15 06:22:00,35.3,34.0,30.01,South,184,0.0,0.0,95,0.00,,,0.00,Wunderground v.1.15,2013-05-15 10:22:00,
2013-05-15 06:27:00,36.3,35.0,30.01,South,184,0.0,0.0,95,0.00,,,0.00,Wunderground v.1.15,2013-05-15 10:27:00,
2013-05-15 06:32:00,36.8,35.0,30.01,South,184,0.0,0.0,93,0.00,,,0.00,Wunderground v.1.15,2013-05-15 10:32:00,
2013-05-15 06:37:00,36.9,34.8,30.01,South,185,0.0,0.0,92,0.00,,,0.00,Wunderground v.1.15,2013-05-15 10:37:00,
2013-05-15 06:42:00,38.1,36.5,30.01,South,184,0.0,0.0,94,0.00,,,0.00,Wunderground v.1.15,2013-05-15 10:42:00,
2013-05-15 06:47:00,39.1,36.4,30.01,South,184,0.0,0.0,90,0.00,,,0.00,Wunderground v.1.15,2013-05-15 10:47:00,
2013-05-15 06:52:00,39.9,36.9,30.01,South,184,0.0,0.0,89,0.00,,,0.00,Wunderground v.1.15,2013-05-15 10:52:00,
2013-05-15 06:57:00,40.5,36.9,30.01,South,184,0.0,0.0,87,0.00,,,0.00,Wunderground v.1.15,2013-05-15 10:57:00,
2013-05-15 07:02:00,40.9,36.7,30.01,South,183,0.0,0.0,85,0.00,,,0.00,Wunderground v.1.15,2013-05-15 11:02:00,
2013-05-15 07:07:00,42.1,37.9,30.01,South,183,0.0,0.0,85,0.00,,,0.00,Wunderground v.1.15,2013-05-15 11:07:00,
2013-05-15 07:12:00,42.9,38.1,30.01,South,184,0.0,0.0,83,0.00,,,0.00,Wunderground v.1.15,2013-05-15 11:12:00,
2013-05-15 07:17:00,43.9,38.4,30.01,SSW,194,0.0,0.0,81,0.00,,,0.00,Wunderground v.1.15,2013-05-15 11:17:00,
2013-05-15 07:22:00,44.6,38.5,30.01,SW,224,0.0,0.0,79,0.00,,,0.00,Wunderground v.1.15,2013-05-15 11:22:00,
2013-05-15 07:28:00,45.6,39.8,30.01,SW,225,0.0,0.0,80,0.00,,,0.00,Wunderground v.1.15,2013-05-15 11:28:00,
2013-05-15 07:33:00,46.0,39.9,30.01,SW,229,0.0,0.0,79,0.00,,,0.00,Wunderground v.1.15,2013-05-15 11:33:00,
2013-05-15 07:38:00,45.7,39.9,30.01,SW,233,0.0,0.0,80,0.00,,,0.00,Wunderground v.1.15,2013-05-15 11:38:00,
2013-05-15 07:43:00,46.8,41.0,30.00,WSW,249,0.0,0.0,80,0.00,,,0.00,Wunderground v.1.15,2013-05-15 11:43:00,
2013-05-15 07:48:00,47.1,40.6,30.00,WSW,249,0.0,0.0,78,0.00,,,0.00,Wunderground v.1.15,2013-05-15 11:48:00,
2013-05-15 07:54:00,48.4,41.9,30.00,West,264,0.0,0.0,78,0.00,,,0.00,Wunderground v.1.15,2013-05-15 11:54:00,
2013-05-15 07:59:00,48.9,41.7,30.00,WSW,255,0.0,0.0,76,0.00,,,0.00,Wunderground v.1.15,2013-05-15 11:59:00,
2013-05-15 08:04:00,49.3,41.4,30.00,WSW,243,0.0,0.0,74,0.00,,,0.00,Wunderground v.1.15,2013-05-15 12:04:00,
2013-05-15 08:09:00,49.9,40.5,30.00,SW,235,0.0,0.0,70,0.00,,,0.00,Wunderground v.1.15,2013-05-15 12:09:00,
2013-05-15 08:14:00,51.9,42.0,30.00,WNW,290,0.0,0.0,69,0.00,,,0.00,Wunderground v.1.15,2013-05-15 12:14:00,
2013-05-15 08:19:00,52.8,41.7,30.00,West,266,0.0,0.0,66,0.00,,,0.00,Wunderground v.1.15,2013-05-15 12:19:00,
2013-05-15 08:24:00,53.6,40.9,29.99,WSW,249,0.0,0.0,62,0.00,,,0.00,Wunderground v.1.15,2013-05-15 12:24:00,
2013-05-15 08:29:00,54.5,40.0,29.99,SW,220,0.0,0.0,58,0.00,,,0.00,Wunderground v.1.15,2013-05-15 12:29:00,
2013-05-15 08:34:00,55.2,40.7,29.99,SSE,150,0.0,0.0,58,0.00,,,0.00,Wunderground v.1.15,2013-05-15 12:34:00,
2013-05-15 08:40:00,55.9,38.5,29.99,West,260,0.0,3.0,52,0.00,,,0.00,Wunderground v.1.15,2013-05-15 12:40:00,
2013-05-15 08:45:00,56.3,37.4,29.98,SSW,200,0.0,4.0,49,0.00,,,0.00,Wunderground v.1.15,2013-05-15 12:45:00,
2013-05-15 08:50:00,57.0,37.5,29.98,WSW,239,0.0,1.0,48,0.00,,,0.00,Wunderground v.1.15,2013-05-15 12:50:00,
2013-05-15 08:55:00,57.7,37.0,29.98,SSW,212,0.0,3.0,46,0.00,,,0.00,Wunderground v.1.15,2013-05-15 12:55:00,
2013-05-15 09:00:00,59.0,34.1,29.97,NW,322,1.0,1.0,39,0.00,,,0.00,Wunderground v.1.15,2013-05-15 13:00:00,
2013-05-15 09:06:00,60.3,35.9,29.97,SSW,203,1.0,2.0,40,0.00,,,0.00,Wunderground v.1.15,2013-05-15 13:06:00,
2013-05-15 09:11:00,60.2,33.1,29.97,SSW,207,2.0,3.0,36,0.00,,,0.00,Wunderground v.1.15,2013-05-15 13:11:00,
2013-05-15 09:16:00,59.9,33.5,29.96,WSW,242,1.0,3.0,37,0.00,,,0.00,Wunderground v.1.15,2013-05-15 13:16:00,
2013-05-15 09:21:00,59.7,34.0,29.97,SE,145,3.0,6.0,38,0.00,,,0.00,Wunderground v.1.15,2013-05-15 13:21:00,
2013-05-15 09:26:00,58.9,33.3,29.96,ENE,61,3.0,10.0,38,0.00,,,0.00,Wunderground v.1.15,2013-05-15 13:26:00,
2013-05-15 09:32:00,59.1,34.8,29.96,SE,125,4.0,9.0,40,0.00,,,0.00,Wunderground v.1.15,2013-05-15 13:32:00,
2013-05-15 09:38:00,58.6,33.7,29.96,NE,53,1.0,10.0,39,0.00,,,0.00,Wunderground v.1.15,2013-05-15 13:38:00,
2013-05-15 09:43:00,59.7,34.0,29.96,SW,214,1.0,5.0,38,0.00,,,0.00,Wunderground v.1.15,2013-05-15 13:43:00,
2013-05-15 09:48:00,59.6,32.6,29.96,East,101,4.0,11.0,36,0.00,,,0.00,Wunderground v.1.15,2013-05-15 13:48:00,
2013-05-15 09:53:00,59.3,33.7,29.95,NNW,338,2.0,7.0,38,0.00,,,0.00,Wunderground v.1.15,2013-05-15 13:53:00,
2013-05-15 09:58:00,59.8,32.8,29.95,East,88,4.0,7.0,36,0.00,,,0.00,Wunderground v.1.15,2013-05-15 13:58:00,
2013-05-15 10:03:00,60.0,32.9,29.95,SW,231,2.0,6.0,36,0.00,,,0.00,Wunderground v.1.15,2013-05-15 14:03:00,
2013-05-15 10:08:00,60.1,33.0,29.95,WSW,242,1.0,6.0,36,0.00,,,0.00,Wunderground v.1.15,2013-05-15 14:08:00,
2013-05-15 10:14:00,60.7,33.6,29.94,WSW,242,4.0,8.0,36,0.00,,,0.00,Wunderground v.1.15,2013-05-15 14:14:00,
2013-05-15 10:19:00,61.4,32.8,29.94,WSW,245,3.0,8.0,34,0.00,,,0.00,Wunderground v.1.15,2013-05-15 14:19:00,
2013-05-15 10:24:00,61.4,32.0,29.94,South,173,5.0,8.0,33,0.00,,,0.00,Wunderground v.1.15,2013-05-15 14:24:00,
2013-05-15 10:29:00,61.6,31.4,29.94,SSW,204,1.0,9.0,32,0.00,,,0.00,Wunderground v.1.15,2013-05-15 14:29:00,
2013-05-15 10:35:00,61.8,33.1,29.94,SW,229,3.0,7.0,34,0.00,,,0.00,Wunderground v.1.15,2013-05-15 14:35:00,
2013-05-15 10:40:00,62.0,32.5,29.94,SW,229,1.0,4.0,33,0.00,,,0.00,Wunderground v.1.15,2013-05-15 14:40:00,
2013-05-15 10:45:00,62.1,31.9,29.94,WSW,253,5.0,7.0,32,0.00,,,0.00,Wunderground v.1.15,2013-05-15 14:45:00,
2013-05-15 10:51:00,62.0,32.5,29.94,SW,232,2.0,6.0,33,0.00,,,0.00,Wunderground v.1.15,2013-05-15 14:51:00,
2013-05-15 10:56:00,62.7,32.4,29.93,West,265,6.0,11.0,32,0.00,,,0.00,Wunderground v.1.15,2013-05-15 14:56:00,
2013-05-15 11:01:00,62.5,33.0,29.93,WNW,298,2.0,9.0,33,0.00,,,0.00,Wunderground v.1.15,2013-05-15 15:01:00,
2013-05-15 11:06:00,62.3,33.6,29.93,West,259,1.0,9.0,34,0.00,,,0.00,Wunderground v.1.15,2013-05-15 15:06:00,
2013-05-15 11:11:00,62.8,34.0,29.93,SSW,212,3.0,7.0,34,0.00,,,0.00,Wunderground v.1.15,2013-05-15 15:11:00,
2013-05-15 11:16:00,62.9,35.5,29.93,ENE,65,6.0,16.0,36,0.00,,,0.00,Wunderground v.1.15,2013-05-15 15:16:00,
2013-05-15 11:22:00,63.0,36.3,29.93,SSW,207,10.0,10.0,37,0.00,,,0.00,Wunderground v.1.15,2013-05-15 15:22:00,
2013-05-15 11:27:00,62.6,36.6,29.92,SSW,212,3.0,13.0,38,0.00,,,0.00,Wunderground v.1.15,2013-05-15 15:27:00,
2013-05-15 11:33:00,62.6,36.6,29.92,West,267,2.0,10.0,38,0.00,,,0.00,Wunderground v.1.15,2013-05-15 15:33:00,
2013-05-15 11:38:00,62.4,37.1,29.92,WSW,257,1.0,12.0,39,0.00,,,0.00,Wunderground v.1.15,2013-05-15 15:38:00,
2013-05-15 11:43:00,62.9,36.9,29.92,SSE,168,3.0,9.0,38,0.00,,,0.00,Wunderground v.1.15,2013-05-15 15:43:00,
2013-05-15 11:48:00,63.4,38.0,29.92,SW,224,7.0,13.0,39,0.00,,,0.00,Wunderground v.1.15,2013-05-15 15:48:00,
2013-05-15 11:53:00,62.7,36.7,29.92,WSW,253,3.0,14.0,38,0.00,,,0.00,Wunderground v.1.15,2013-05-15 15:53:00,
2013-05-15 11:58:00,62.4,36.4,29.91,SSE,158,4.0,14.0,38,0.00,,,0.00,Wunderground v.1.15,2013-05-15 15:58:00,
2013-05-15 12:04:00,62.6,37.9,29.91,SSE,162,7.0,14.0,40,0.00,,,0.00,Wunderground v.1.15,2013-05-15 16:04:00,
2013-05-15 12:09:00,63.1,38.4,29.90,SSW,204,7.0,14.0,40,0.00,,,0.00,Wunderground v.1.15,2013-05-15 16:09:00,
2013-05-15 12:15:00,62.4,35.1,29.90,SSW,212,7.0,14.0,36,0.00,,,0.00,Wunderground v.1.15,2013-05-15 16:15:00,
2013-05-15 12:20:00,62.1,35.5,29.90,SSE,168,5.0,7.0,37,0.00,,,0.00,Wunderground v.1.15,2013-05-15 16:20:00,
2013-05-15 12:25:00,62.0,36.1,29.90,SW,226,3.0,14.0,38,0.00,,,0.00,Wunderground v.1.15,2013-05-15 16:25:00,
2013-05-15 12:30:00,62.4,35.8,29.89,SSW,212,4.0,5.0,37,0.00,,,0.00,Wunderground v.1.15,2013-05-15 16:30:00,
2013-05-15 12:35:00,62.4,35.1,29.89,WSW,252,4.0,12.0,36,0.00,,,0.00,Wunderground v.1.15,2013-05-15 16:35:00,
2013-05-15 12:40:00,62.7,36.0,29.90,SE,140,3.0,10.0,37,0.00,,,0.00,Wunderground v.1.15,2013-05-15 16:40:00,
2013-05-15 12:46:00,62.4,35.8,29.89,SSE,163,5.0,12.0,37,0.00,,,0.00,Wunderground v.1.15,2013-05-15 16:46:00,
2013-05-15 12:51:00,62.6,36.6,29.89,SW,226,4.0,5.0,38,0.00,,,0.00,Wunderground v.1.15,2013-05-15 16:51:00,
2013-05-15 12:56:00,62.6,36.6,29.88,ESE,110,9.0,9.0,38,0.00,,,0.00,Wunderground v.1.15,2013-05-15 16:56:00,
2013-05-15 13:01:00,62.3,37.0,29.88,South,174,2.0,6.0,39,0.00,,,0.00,Wunderground v.1.15,2013-05-15 17:01:00,
2013-05-15 13:07:00,62.4,37.7,29.88,SE,142,5.0,11.0,40,0.00,,,0.00,Wunderground v.1.15,2013-05-15 17:07:00,
2013-05-15 13:12:00,62.5,38.5,29.88,South,178,7.0,9.0,41,0.00,,,0.00,Wunderground v.1.15,2013-05-15 17:12:00,
2013-05-15 13:17:00,62.6,39.8,29.88,SW,233,3.0,11.0,43,0.00,,,0.00,Wunderground v.1.15,2013-05-15 17:17:00,
2013-05-15 13:22:00,62.7,39.9,29.87,SE,128,5.0,5.0,43,0.00,,,0.00,Wunderground v.1.15,2013-05-15 17:22:00,
2013-05-15 13:27:00,62.4,39.0,29.87,NE,44,10.0,12.0,42,0.00,,,0.00,Wunderground v.1.15,2013-05-15 17:27:00,
2013-05-15 13:32:00,61.8,39.6,29.87,East,101,0.0,8.0,44,0.00,,,0.00,Wunderground v.1.15,2013-05-15 17:32:00,
2013-05-15 13:38:00,62.2,40.0,29.86,ESE,117,8.0,12.0,44,0.00,,,0.00,Wunderground v.1.15,2013-05-15 17:38:00,
2013-05-15 13:43:00,63.1,39.6,29.86,ESE,104,5.0,10.0,42,0.00,,,0.00,Wunderground v.1.15,2013-05-15 17:43:00,
2013-05-15 13:48:00,63.8,40.9,29.85,ESE,110,7.0,10.0,43,0.00,,,0.00,Wunderground v.1.15,2013-05-15 17:48:00,
2013-05-15 13:53:00,64.6,41.0,29.84,South,184,1.0,11.0,42,0.00,,,0.00,Wunderground v.1.15,2013-05-15 17:53:00,
2013-05-15 13:58:00,65.0,40.1,29.83,South,172,2.0,11.0,40,0.00,,,0.00,Wunderground v.1.15,2013-05-15 17:58:00,
2013-05-15 14:03:00,65.6,41.3,29.83,NW,313,1.0,8.0,41,0.00,,,0.00,Wunderground v.1.15,2013-05-15 18:03:00,
2013-05-15 14:08:00,65.9,39.6,29.83,SSW,198,7.0,11.0,38,0.00,,,0.00,Wunderground v.1.15,2013-05-15 18:08:00,
2013-05-15 14:13:00,65.0,40.1,29.82,WSW,239,3.0,15.0,40,0.00,,,0.00,Wunderground v.1.15,2013-05-15 18:13:00,
2013-05-15 14:18:00,64.3,39.4,29.82,SE,142,2.0,15.0,40,0.00,,,0.00,Wunderground v.1.15,2013-05-15 18:18:00,
2013-05-15 14:24:00,63.9,39.7,29.81,SW,224,0.0,6.0,41,0.00,,,0.00,Wunderground v.1.15,2013-05-15 18:24:00,
2013-05-15 14:29:00,63.6,40.1,29.81,NE,53,2.0,6.0,42,0.00,,,0.00,Wunderground v.1.15,2013-05-15 18:29:00,
2013-05-15 14:34:00,63.3,39.8,29.81,SE,135,2.0,4.0,42,0.00,,,0.00,Wunderground v.1.15,2013-05-15 18:34:00,
2013-05-15 14:39:00,62.2,40.6,29.80,SE,135,4.0,7.0,45,0.00,,,0.00,Wunderground v.1.15,2013-05-15 18:39:00,
2013-05-15 14:45:00,61.4,42.1,29.81,SSW,200,1.0,4.0,49,0.00,,,0.00,Wunderground v.1.15,2013-05-15 18:45:00,
2013-05-15 14:50:00,60.7,42.5,29.82,SE,129,0.0,2.0,51,0.00,,,0.00,Wunderground v.1.15,2013-05-15 18:50:00,
2013-05-15 14:56:00,60.2,43.5,29.82,ESE,120,3.0,4.0,54,0.00,,,0.00,Wunderground v.1.15,2013-05-15 18:56:00,
2013-05-15 15:01:00,59.9,44.6,29.81,SE,143,1.0,2.0,57,0.00,,,0.00,Wunderground v.1.15,2013-05-15 19:01:00,
2013-05-15 15:06:00,59.4,44.2,29.81,SE,131,1.0,7.0,57,0.00,,,0.00,Wunderground v.1.15,2013-05-15 19:06:00,
2013-05-15 15:12:00,58.6,46.0,29.80,SE,143,2.0,3.0,63,0.00,,,0.00,Wunderground v.1.15,2013-05-15 19:12:00,
2013-05-15 15:17:00,57.6,44.7,29.80,West,274,1.0,8.0,62,0.00,,,0.00,Wunderground v.1.15,2013-05-15 19:17:00,
2013-05-15 15:22:00,56.8,45.2,29.80,East,97,1.0,3.0,65,0.00,,,0.00,Wunderground v.1.15,2013-05-15 19:22:00,
2013-05-15 15:28:00,56.3,45.9,29.81,SSE,163,2.0,4.0,68,0.00,,,0.01,Wunderground v.1.15,2013-05-15 19:28:00,
2013-05-15 15:33:00,55.5,45.9,29.80,ENE,75,1.0,5.0,70,0.00,,,0.01,Wunderground v.1.15,2013-05-15 19:33:00,
2013-05-15 15:39:00,54.2,47.1,29.79,SE,130,5.0,6.0,77,0.31,,,0.04,Wunderground v.1.15,2013-05-15 19:39:00,
2013-05-15 15:44:00,53.0,47.3,29.77,East,100,1.0,4.0,81,0.22,,,0.05,Wunderground v.1.15,2013-05-15 19:44:00,
2013-05-15 15:49:00,52.6,46.6,29.77,SSE,165,2.0,9.0,80,0.29,,,0.08,Wunderground v.1.15,2013-05-15 19:49:00,
2013-05-15 15:54:00,52.4,47.4,29.76,ENE,77,1.0,5.0,83,0.18,,,0.09,Wunderground v.1.15,2013-05-15 19:54:00,
2013-05-15 15:59:00,52.5,47.2,29.77,South,177,1.0,5.0,82,0.07,,,0.09,Wunderground v.1.15,2013-05-15 19:59:00,
2013-05-15 16:04:00,53.1,48.7,29.77,NW,308,0.0,3.0,85,0.04,,,0.09,Wunderground v.1.15,2013-05-15 20:04:00,
2013-05-15 16:10:00,53.6,48.2,29.77,ESE,117,3.0,5.0,82,0.00,,,0.09,Wunderground v.1.15,2013-05-15 20:10:00,
2013-05-15 16:15:00,53.9,48.5,29.77,SE,130,5.0,5.0,82,0.00,,,0.09,Wunderground v.1.15,2013-05-15 20:15:00,
2013-05-15 16:20:00,54.2,48.5,29.77,WNW,290,1.0,2.0,81,0.00,,,0.09,Wunderground v.1.15,2013-05-15 20:20:00,
2013-05-15 16:25:00,54.4,48.7,29.76,ESE,118,0.0,2.0,81,0.00,,,0.09,Wunderground v.1.15,2013-05-15 20:25:00,
2013-05-15 16:30:00,54.5,49.1,29.77,SSE,160,1.0,1.0,82,0.00,,,0.09,Wunderground v.1.15,2013-05-15 20:30:00,
2013-05-15 16:35:00,54.6,49.5,29.76,WNW,293,0.0,5.0,83,0.00,,,0.09,Wunderground v.1.15,2013-05-15 20:35:00,
2013-05-15 16:40:00,54.6,49.5,29.75,East,83,2.0,2.0,83,0.00,,,0.09,Wunderground v.1.15,2013-05-15 20:40:00,
2013-05-15 16:45:00,54.6,49.5,29.74,East,85,4.0,5.0,83,0.00,,,0.09,Wunderground v.1.15,2013-05-15 20:45:00,
2013-05-15 16:50:00,54.5,49.8,29.74,NE,41,3.0,3.0,84,0.00,,,0.09,Wunderground v.1.15,2013-05-15 20:50:00,
2013-05-15 16:56:00,54.6,49.9,29.74,ENE,61,2.0,3.0,84,0.00,,,0.09,Wunderground v.1.15,2013-05-15 20:56:00,
2013-05-15 17:01:00,54.6,49.2,29.73,ENE,68,3.0,5.0,82,0.00,,,0.09,Wunderground v.1.15,2013-05-15 21:01:00,
2013-05-15 17:06:00,54.6,49.5,29.73,East,84,3.0,6.0,83,0.00,,,0.09,Wunderground v.1.15,2013-05-15 21:06:00,
2013-05-15 17:11:00,54.7,49.6,29.73,SE,136,6.0,7.0,83,0.00,,,0.09,Wunderground v.1.15,2013-05-15 21:11:00,
2013-05-15 17:16:00,54.7,49.6,29.72,ESE,108,9.0,14.0,83,0.00,,,0.09,Wunderground v.1.15,2013-05-15 21:16:00,
2013-05-15 17:21:00,54.9,49.8,29.72,SSW,208,1.0,5.0,83,0.00,,,0.09,Wunderground v.1.15,2013-05-15 21:21:00,
2013-05-15 17:27:00,54.9,49.8,29.71,SSE,156,2.0,5.0,83,0.00,,,0.09,Wunderground v.1.15,2013-05-15 21:27:00,
2013-05-15 17:32:00,54.8,49.7,29.71,ESE,115,3.0,13.0,83,0.00,,,0.09,Wunderground v.1.15,2013-05-15 21:32:00,
2013-05-15 17:37:00,54.8,50.1,29.70,East,100,4.0,13.0,84,0.00,,,0.09,Wunderground v.1.15,2013-05-15 21:37:00,
2013-05-15 17:42:00,54.7,50.0,29.71,West,268,0.0,3.0,84,0.00,,,0.09,Wunderground v.1.15,2013-05-15 21:42:00,
2013-05-15 17:47:00,54.7,50.3,29.70,East,79,4.0,7.0,85,0.00,,,0.09,Wunderground v.1.15,2013-05-15 21:47:00,
2013-05-15 17:52:00,54.6,50.2,29.70,WSW,249,1.0,6.0,85,0.00,,,0.09,Wunderground v.1.15,2013-05-15 21:52:00,
2013-05-15 17:57:00,54.5,50.1,29.70,SSE,164,3.0,7.0,85,0.00,,,0.09,Wunderground v.1.15,2013-05-15 21:57:00,
2013-05-15 18:02:00,54.5,50.4,29.70,East,96,2.0,6.0,86,0.00,,,0.09,Wunderground v.1.15,2013-05-15 22:02:00,
2013-05-15 18:08:00,54.4,50.3,29.69,ENE,65,3.0,8.0,86,0.00,,,0.09,Wunderground v.1.15,2013-05-15 22:08:00,
2013-05-15 18:13:00,54.5,50.4,29.68,ENE,68,12.0,12.0,86,0.00,,,0.09,Wunderground v.1.15,2013-05-15 22:13:00,
2013-05-15 18:18:00,54.5,50.7,29.68,SE,146,5.0,12.0,87,0.00,,,0.09,Wunderground v.1.15,2013-05-15 22:18:00,
2013-05-15 18:23:00,54.5,50.7,29.67,South,187,7.0,11.0,87,0.00,,,0.09,Wunderground v.1.15,2013-05-15 22:23:00,
2013-05-15 18:29:00,54.6,50.8,29.67,South,184,3.0,11.0,87,0.00,,,0.09,Wunderground v.1.15,2013-05-15 22:29:00,
2013-05-15 18:34:00,54.7,50.9,29.67,ESE,122,1.0,10.0,87,0.00,,,0.09,Wunderground v.1.15,2013-05-15 22:34:00,
2013-05-15 18:39:00,54.7,50.9,29.68,SW,235,3.0,10.0,87,0.00,,,0.09,Wunderground v.1.15,2013-05-15 22:39:00,
2013-05-15 18:44:00,54.7,50.9,29.70,SSE,155,0.0,4.0,87,0.00,,,0.09,Wunderground v.1.15,2013-05-15 22:44:00,
2013-05-15 18:49:00,54.8,51.0,29.70,SSE,165,1.0,9.0,87,0.00,,,0.09,Wunderground v.1.15,2013-05-15 22:49:00,
2013-05-15 18:55:00,54.8,51.0,29.69,NE,53,1.0,6.0,87,0.00,,,0.09,Wunderground v.1.15,2013-05-15 22:55:00,
2013-05-15 19:00:00,54.9,51.1,29.69,SW,222,2.0,3.0,87,0.00,,,0.09,Wunderground v.1.15,2013-05-15 23:00:00,
2013-05-15 19:05:00,54.9,51.1,29.68,SSW,210,9.0,10.0,87,0.00,,,0.09,Wunderground v.1.15,2013-05-15 23:05:00,
2013-05-15 19:11:00,55.1,51.3,29.68,South,178,1.0,3.0,87,0.00,,,0.09,Wunderground v.1.15,2013-05-15 23:11:00,
2013-05-15 19:16:00,55.1,51.0,29.68,SSW,207,6.0,9.0,86,0.00,,,0.09,Wunderground v.1.15,2013-05-15 23:16:00,
2013-05-15 19:21:00,55.3,51.2,29.68,ESE,118,2.0,10.0,86,0.00,,,0.09,Wunderground v.1.15,2013-05-15 23:21:00,
2013-05-15 19:26:00,55.3,51.2,29.68,SSE,153,4.0,10.0,86,0.00,,,0.09,Wunderground v.1.15,2013-05-15 23:26:00,
2013-05-15 19:31:00,55.3,51.2,29.67,ESE,105,2.0,9.0,86,0.00,,,0.09,Wunderground v.1.15,2013-05-15 23:31:00,
2013-05-15 19:36:00,55.3,51.2,29.67,SW,224,11.0,11.0,86,0.00,,,0.09,Wunderground v.1.15,2013-05-15 23:36:00,
2013-05-15 19:42:00,55.4,51.3,29.67,SE,134,4.0,7.0,86,0.00,,,0.09,Wunderground v.1.15,2013-05-15 23:42:00,
2013-05-15 19:47:00,55.4,51.3,29.67,SE,143,0.0,10.0,86,0.00,,,0.09,Wunderground v.1.15,2013-05-15 23:47:00,
2013-05-15 19:53:00,55.4,51.3,29.66,SSW,194,4.0,6.0,86,0.00,,,0.09,Wunderground v.1.15,2013-05-15 23:53:00,
2013-05-15 19:58:00,55.4,51.3,29.66,SSW,210,2.0,9.0,86,0.00,,,0.09,Wunderground v.1.15,2013-05-15 23:58:00,
2013-05-15 20:03:00,55.4,51.3,29.66,East,83,1.0,7.0,86,0.00,,,0.09,Wunderground v.1.15,2013-05-16 00:03:00,
2013-05-15 20:08:00,55.4,51.3,29.66,ESE,117,1.0,7.0,86,0.00,,,0.09,Wunderground v.1.15,2013-05-16 00:08:00,
2013-05-15 20:13:00,55.4,51.3,29.65,SE,146,3.0,5.0,86,0.00,,,0.09,Wunderground v.1.15,2013-05-16 00:13:00,
2013-05-15 20:19:00,55.4,51.3,29.65,East,100,1.0,5.0,86,0.00,,,0.09,Wunderground v.1.15,2013-05-16 00:19:00,
2013-05-15 20:24:00,55.4,51.3,29.65,SE,135,0.0,2.0,86,0.00,,,0.09,Wunderground v.1.15,2013-05-16 00:24:00,
2013-05-15 20:29:00,55.3,51.2,29.66,ESE,108,4.0,5.0,86,0.00,,,0.09,Wunderground v.1.15,2013-05-16 00:29:00,
2013-05-15 20:34:00,55.3,51.2,29.65,SSE,164,1.0,5.0,86,0.00,,,0.09,Wunderground v.1.15,2013-05-16 00:34:00,
2013-05-15 20:40:00,55.3,51.2,29.65,ESE,120,0.0,5.0,86,0.00,,,0.09,Wunderground v.1.15,2013-05-16 00:40:00,
2013-05-15 20:45:00,55.2,51.1,29.65,West,264,1.0,9.0,86,0.00,,,0.09,Wunderground v.1.15,2013-05-16 00:45:00,
2013-05-15 20:50:00,55.1,51.3,29.65,SE,145,3.0,3.0,87,0.00,,,0.09,Wunderground v.1.15,2013-05-16 00:50:00,
2013-05-15 20:55:00,55.0,51.2,29.65,ESE,113,0.0,3.0,87,0.00,,,0.09,Wunderground v.1.15,2013-05-16 00:55:00,
2013-05-15 21:00:00,55.0,51.2,29.65,SE,129,4.0,4.0,87,0.00,,,0.09,Wunderground v.1.15,2013-05-16 01:00:00,
2013-05-15 21:06:00,55.0,51.2,29.65,ESE,120,0.0,4.0,87,0.00,,,0.09,Wunderground v.1.15,2013-05-16 01:06:00,
2013-05-15 21:11:00,54.8,51.0,29.65,SE,139,0.0,1.0,87,0.00,,,0.09,Wunderground v.1.15,2013-05-16 01:11:00,
2013-05-15 21:16:00,54.7,50.9,29.65,East,86,1.0,2.0,87,0.00,,,0.09,Wunderground v.1.15,2013-05-16 01:16:00,
2013-05-15 21:21:00,54.6,51.1,29.64,SE,125,0.0,3.0,88,0.00,,,0.09,Wunderground v.1.15,2013-05-16 01:21:00,
2013-05-15 21:27:00,54.6,51.1,29.64,ENE,65,0.0,3.0,88,0.00,,,0.09,Wunderground v.1.15,2013-05-16 01:27:00,
2013-05-15 21:32:00,54.5,51.0,29.65,SE,126,0.0,1.0,88,0.00,,,0.09,Wunderground v.1.15,2013-05-16 01:32:00,
2013-05-15 21:37:00,54.3,50.8,29.64,SW,226,1.0,3.0,88,0.00,,,0.09,Wunderground v.1.15,2013-05-16 01:37:00,
2013-05-15 21:42:00,54.2,50.7,29.65,SSW,200,0.0,2.0,88,0.00,,,0.09,Wunderground v.1.15,2013-05-16 01:42:00,
2013-05-15 21:47:00,54.1,50.9,29.64,SSW,210,0.0,2.0,89,0.00,,,0.09,Wunderground v.1.15,2013-05-16 01:47:00,
2013-05-15 21:52:00,53.9,50.7,29.64,SSE,156,0.0,1.0,89,0.00,,,0.09,Wunderground v.1.15,2013-05-16 01:52:00,
2013-05-15 21:57:00,53.8,50.6,29.64,SE,134,0.0,4.0,89,0.00,,,0.09,Wunderground v.1.15,2013-05-16 01:57:00,
2013-05-15 22:02:00,53.7,50.5,29.64,ESE,119,0.0,1.0,89,0.00,,,0.09,Wunderground v.1.15,2013-05-16 02:02:00,
2013-05-15 22:08:00,53.7,50.8,29.64,SSE,155,3.0,4.0,90,0.00,,,0.09,Wunderground v.1.15,2013-05-16 02:08:00,
2013-05-15 22:13:00,53.6,50.7,29.64,SSW,210,3.0,3.0,90,0.00,,,0.09,Wunderground v.1.15,2013-05-16 02:13:00,
2013-05-15 22:18:00,53.6,50.7,29.64,SE,124,1.0,3.0,90,0.00,,,0.09,Wunderground v.1.15,2013-05-16 02:18:00,
2013-05-15 22:23:00,53.6,50.7,29.64,SW,221,2.0,2.0,90,0.00,,,0.09,Wunderground v.1.15,2013-05-16 02:23:00,
2013-05-15 22:28:00,53.6,50.7,29.64,SE,134,0.0,3.0,90,0.00,,,0.09,Wunderground v.1.15,2013-05-16 02:28:00,
2013-05-15 22:34:00,53.5,50.9,29.64,SSW,210,2.0,6.0,91,0.00,,,0.09,Wunderground v.1.15,2013-05-16 02:34:00,
2013-05-15 22:39:00,53.4,50.8,29.64,WSW,248,3.0,6.0,91,0.00,,,0.09,Wunderground v.1.15,2013-05-16 02:39:00,
2013-05-15 22:44:00,53.5,50.9,29.64,ESE,120,4.0,4.0,91,0.00,,,0.09,Wunderground v.1.15,2013-05-16 02:44:00,
2013-05-15 22:49:00,53.4,50.8,29.64,WSW,255,4.0,4.0,91,0.00,,,0.09,Wunderground v.1.15,2013-05-16 02:49:00,
2013-05-15 22:54:00,53.3,50.7,29.64,South,188,0.0,3.0,91,0.00,,,0.09,Wunderground v.1.15,2013-05-16 02:54:00,
2013-05-15 22:59:00,53.1,50.5,29.65,SSW,207,1.0,4.0,91,0.00,,,0.09,Wunderground v.1.15,2013-05-16 02:59:00,
2013-05-15 23:05:00,52.9,50.6,29.64,SE,142,0.0,2.0,92,0.00,,,0.09,Wunderground v.1.15,2013-05-16 03:05:00,
2013-05-15 23:10:00,52.6,50.3,29.64,SW,224,2.0,2.0,92,0.00,,,0.09,Wunderground v.1.15,2013-05-16 03:10:00,
2013-05-15 23:15:00,52.4,50.1,29.64,SSW,194,1.0,2.0,92,0.00,,,0.09,Wunderground v.1.15,2013-05-16 03:15:00,
2013-05-15 23:20:00,52.4,50.4,29.64,SSW,201,2.0,3.0,93,0.00,,,0.09,Wunderground v.1.15,2013-05-16 03:20:00,
2013-05-15 23:26:00,52.6,50.6,29.64,SE,136,0.0,4.0,93,0.00,,,0.09,Wunderground v.1.15,2013-05-16 03:26:00,
2013-05-15 23:31:00,52.6,50.6,29.64,ESE,117,0.0,1.0,93,0.00,,,0.09,Wunderground v.1.15,2013-05-16 03:31:00,
2013-05-15 23:36:00,52.7,50.4,29.64,SSE,150,0.0,3.0,92,0.00,,,0.09,Wunderground v.1.15,2013-05-16 03:36:00,
2013-05-15 23:41:00,52.7,50.4,29.64,ESE,108,0.0,3.0,92,0.00,,,0.09,Wunderground v.1.15,2013-05-16 03:41:00,
2013-05-15 23:47:00,52.6,50.3,29.63,SW,232,0.0,3.0,92,0.00,,,0.09,Wunderground v.1.15,2013-05-16 03:47:00,
2013-05-15 23:52:00,52.6,50.6,29.63,SE,131,1.0,5.0,93,0.00,,,0.09,Wunderground v.1.15,2013-05-16 03:52:00,
2013-05-15 23:57:00,52.5,50.2,29.63,SSW,212,0.0,5.0,92,0.00,,,0.09,Wunderground v.1.15,2013-05-16 03:57:00,